Austin, TX

1:02 AM CDT on June 22, 2018 (GMT -0500)
Austin

Weather History for KATT - June, 2018

Change the Weather History Date:

Thursday, June 14, 2018

  Actual Average Record
Temperature  
Mean Temperature 88 °F 82 °F  
Max Temperature 99 °F 92 °F 108 °F (1998)
Min Temperature 76 °F 72 °F 57 °F (1903)
Degree Days  
Heating Degree Days 0 0  
Month to date heating degree days 0 0  
Since 1 June heating degree days 0 0  
Since 1 July heating degree days 1363 1539  
Cooling Degree Days 23 17  
Month to date cooling degree days 310 226  
Year to date cooling degree days 1092 839  
Since 1 June cooling degree days 310 226  
Growing Degree Days 36 (Base 50)    
Moisture  
Dew Point 69 °F    
Average Humidity 59    
Maximum Humidity 87    
Minimum Humidity 31    
Precipitation  
Precipitation 0.00 in 0.15 in 1.34 in (2015)
Month to date precipitation 1.32 2.30  
Year to date precipitation 12.09 15.83  
Snow  
Snow 0.00 in - - ()
Month to date snowfall 0.0  
Since 1 June snowfall 0.0  
Since 1 July snowfall 0.4  
Snow Depth 0.00 in    
Sea Level Pressure  
Sea Level Pressure 29.97 in    
Wind  
Wind Speed 6 mph (South)    
Max Wind Speed 15 mph    
Max Gust Speed 23 mph    
Visibility 10 miles    
Events      
T = Trace of Precipitation, MM = Missing Value Source: NWS Daily Summary

Daily Weather History Graph

Daily Weather History Graph

Search for Another Location

Airport or City:

Astronomy

Jun. 14, 2018 Rise Set
Actual Time 6:28 AM CDT 8:34 PM CDT
Civil Twilight 6:01 AM CDT 9:01 PM CDT
Nautical Twilight 5:27 AM CDT 9:35 PM CDT
Astronomical Twilight 4:51 AM CDT 10:11 PM CDT
Moon 7:23 AM CDT (6/14) 9:39 PM CDT (6/14)
Length of Visible Light 15h 00m
Length of Day
14h 05m
New Moon, 1% of the Moon is Illuminated
Jun 14
New Moon
Jun 20
First Quarter
Jun 27
Full
Jul 6
Last Quarter
Jul 12
New

Hourly Weather History & Observations

Time (CDT) Temp. Heat Index Dew Point Humidity Pressure Visibility Wind Dir Wind Speed Gust Speed Precip Events Conditions
12:51 AM 81.0 °F 84.1 °F 69.1 °F 67% 29.99 in 10.0 mi SSE 6.9 mph - N/A   Clear
1:51 AM 79.0 °F - 71.1 °F 77% 30.00 in 10.0 mi South 5.8 mph - N/A   Mostly Cloudy
2:33 AM 78.1 °F - 71.1 °F 79% 30.04 in 10.0 mi Variable 5.8 mph - N/A   Scattered Clouds
2:51 AM 78.1 °F - 71.1 °F 79% 29.99 in 10.0 mi SSW 4.6 mph - N/A   Partly Cloudy
3:51 AM 75.9 °F - 71.1 °F 85% 29.98 in 10.0 mi Variable 3.5 mph - N/A   Partly Cloudy
4:43 AM 75.9 °F - 71.1 °F 85% 30.02 in 10.0 mi Calm Calm - N/A   Mostly Cloudy
4:51 AM 77.0 °F - 71.1 °F 82% 29.98 in 10.0 mi SSW 3.5 mph - N/A   Mostly Cloudy
5:51 AM 77.0 °F - 71.1 °F 82% 29.98 in 10.0 mi Calm Calm - N/A   Mostly Cloudy
6:15 AM 75.9 °F - 71.1 °F 85% 30.02 in 10.0 mi SSW 3.5 mph - N/A   Scattered Clouds
6:25 AM 75.9 °F - 71.1 °F 85% 30.02 in 10.0 mi Calm Calm - N/A   Mostly Cloudy
6:36 AM 75.9 °F - 71.1 °F 85% 30.02 in 10.0 mi Calm Calm - N/A   Scattered Clouds
6:51 AM 75.9 °F - 72.0 °F 87% 29.99 in 10.0 mi Calm Calm - N/A   Mostly Cloudy
7:02 AM 77.0 °F - 72.0 °F 84% 30.03 in 10.0 mi Calm Calm - N/A   Mostly Cloudy
7:29 AM 77.0 °F - 72.0 °F 84% 30.03 in 10.0 mi SSW 4.6 mph - N/A   Scattered Clouds
7:51 AM 78.1 °F - 72.0 °F 81% 30.00 in 10.0 mi South 4.6 mph - N/A   Mostly Cloudy
8:06 AM 78.1 °F - 72.0 °F 81% 30.05 in 10.0 mi Variable 3.5 mph - N/A   Scattered Clouds
8:51 AM 82.0 °F 86.7 °F 72.0 °F 71% 30.01 in 10.0 mi Variable 3.5 mph - N/A   Partly Cloudy
9:51 AM 84.9 °F 90.1 °F 71.1 °F 63% 30.01 in 10.0 mi Variable 3.5 mph - N/A   Mostly Cloudy
10:51 AM 88.0 °F 92.1 °F 69.1 °F 53% 30.01 in 10.0 mi Variable 4.6 mph - N/A   Partly Cloudy
11:51 AM 90.0 °F 92.8 °F 66.9 °F 46% 30.00 in 10.0 mi North - - N/A   Clear
12:51 PM 91.0 °F 93.0 °F 64.9 °F 42% 29.98 in 10.0 mi South 9.2 mph 17.3 mph N/A   Mostly Cloudy
1:51 PM 95.0 °F 97.0 °F 64.0 °F 36% 29.96 in 10.0 mi Variable 4.6 mph - N/A   Clear
2:51 PM 96.1 °F 98.3 °F 64.0 °F 35% 29.92 in 10.0 mi SSE 8.1 mph - N/A   Scattered Clouds
3:51 PM 95.0 °F 96.0 °F 63.0 °F 34% 29.90 in 10.0 mi Variable 4.6 mph - N/A   Partly Cloudy
4:51 PM 98.1 °F 99.6 °F 63.0 °F 31% 29.88 in 10.0 mi Variable 5.8 mph - N/A   Partly Cloudy
5:51 PM 90.0 °F 92.8 °F 66.9 °F 46% 29.89 in 10.0 mi South 8.1 mph 19.6 mph N/A   Partly Cloudy
6:51 PM 91.0 °F 94.3 °F 66.9 °F 45% 29.87 in 10.0 mi South 9.2 mph - N/A   Clear
7:51 PM 88.0 °F 90.3 °F 66.0 °F 48% 29.88 in 10.0 mi Variable 6.9 mph - N/A   Clear
8:51 PM 87.1 °F 89.2 °F 66.0 °F 49% 29.88 in 10.0 mi South 8.1 mph - N/A   Clear
9:51 PM 84.0 °F 86.5 °F 66.9 °F 56% 29.91 in 10.0 mi SSE 8.1 mph 17.3 mph N/A   Clear
10:51 PM 82.9 °F 85.8 °F 68.0 °F 60% 29.93 in 10.0 mi Variable 5.8 mph - N/A   Clear
11:51 PM 82.0 °F 85.5 °F 69.1 °F 65% 29.93 in 10.0 mi South 5.8 mph 19.6 mph N/A   Clear